Home > Time Zones > World Clock > Weather > Belgium > Spa > Past weeks

Flag for Belgium Weather past 2 weeks in Spa, Belgium

Now
60 °F

Low clouds.


Feels Like: 60 °F
Forecast: 58 / 69 °F
Wind: 2 mph from Northwest

Location: Spa / La Sauveniere

Current Time: Jul 11, 2014 at 9:53:50 PM

Latest Report: Jul 11, 2014 at 9:00 PM


Visibility: N/A

Pressure: 29.99 "Hg

Humidity: 94%

Dew point: 58 °F

Location of SpaLocation

Historic Weather in Spa — Graph

°F

Spa temperature yesterday

Maximum temperature yesterday: 71 °F (at 5:00 PM)
Minimum temperature yesterday: 56 °F (at 12:00 AM)
Average temperature yesterday: 62 °F

Past Weeks' High & Low Weather Summary

 TemperatureHumidityPressure
High77 °F (Jul 4, 6:00 PM)100% (Jun 29, 12:00 AM)30.26 "Hg (Jun 29, 12:00 AM)
Low45 °F (Jul 1, 5:00 AM)36% (Jul 3, 2:00 PM)29.70 "Hg (Jul 6, 5:00 PM)
Average58 °F79%29.97 "Hg
* Reported Jun 26 8:00 PM — Jul 11 8:00 PM, Spa, Weather by CustomWeather, © 2014

Note: Actual official high and low records may vary slightly from our data, if they occured in-between our weather recording intervals... More about our weather records

Advertising

Spa weather history for previous 24 hours

 ConditionsComfort  
Time TempWeatherWind HumidityBarometerVisibility
8:00 PM
Jul 11
60 °FLow clouds.3 mph93%29.99 "HgN/A
7:00 PM62 °FLow clouds.3 mph92%29.98 "Hg6 mi
6:00 PM64 °FLow clouds.3 mph89%29.97 "Hg8 mi
5:00 PM64 °FOvercast.3 mph88%29.96 "Hg7 mi
4:00 PM64 °FLow clouds.2 mph88%29.96 "Hg7 mi
3:00 PM64 °FOvercast.2 mph87%29.96 "Hg7 mi
2:00 PM63 °FLow clouds.2 mph90%29.97 "Hg7 mi
1:00 PM63 °FLow clouds.2 mph89%29.98 "Hg7 mi
12:00 PM60 °FLow clouds.1 mph92%29.99 "HgN/A
11:00 AM59 °FFog.1 mph96%30.00 "Hg2 mi
10:00 AM57 °FLow clouds.1 mph98%30.00 "Hg1 mi
9:00 AM57 °FLow clouds.2 mph98%29.98 "Hg1 mi
8:00 AM57 °FLow clouds.1 mph99%29.98 "Hg1 mi
7:00 AM57 °FDense fog.2 mph100%29.96 "Hg0 mi
6:00 AM56 °FDense fog.2 mph100%29.96 "Hg0 mi
5:00 AM57 °FLow clouds.2 mph100%29.95 "Hg1 mi
4:00 AM56 °FLow clouds.3 mph99%29.94 "HgN/A
3:00 AM57 °FClear.2 mph97%29.94 "HgN/A
2:00 AM57 °FClear.1 mph98%29.98 "Hg9 mi
1:00 AM58 °FRain. Passing clouds.6 mph88%29.99 "Hg10 mi
12:00 AM60 °FDrizzle. Dense fog.2 mph100%29.98 "Hg0 mi
11:00 PM
Jul 10
60 °FDrizzle. Low clouds.3 mph100%29.96 "Hg0 mi
10:00 PM61 °FDense fog.5 mph100%29.94 "Hg0 mi
9:00 PM63 °FFog.3 mph98%29.92 "Hg1 mi
Weather by CustomWeather, © 2014

See weather overviewHow to use our weather pages